User: anonymous   Login
Location: Campillo
(40.8621°N, 4.2488°W)
Time: 23:27:54
(UTC+00:00)
Language:

JB-3 - Orbit

View from above orbital plane
View from above orbital plane
View from above satellite
View from above satellite

Ground track
Ground track

The orbit data is extracted from the following two-line orbital elements,

1 28470U 04044A   21204.55817822  .00000189  00000-0  18006-4 0  9997
2 28470  97.2830  73.5111 0043118 284.5493  75.0953 15.03167945917795
Epoch (UTC): 23 July 2021 13:23:46
Eccentricity: 0.0043118
inclination: 97.2830°
perigee height: 527 km
apogee height: 587 km
right ascension of ascending node: 73.5111°
argument of perigee: 284.5493°
revolutions per day: 15.03167945
mean anomaly at epoch: 75.0953°
orbit number at epoch: 91779

The dashed part of the orbit path shows where the satellite is in the earth's shadow,  

DLR